Location: Beetenbrück
(52.8113°N, 9.5946°E)
Time: 21:06:41
(UTC+00:00)

ARIANE 6 FM1 Upper Stage - Pass Details

Date: 14 April 2026
Orbit: 526 x 602 km, 62.0° (Epoch: 12 May)

Event Time Altitude Azimuth Distance (km) Brightness Sun altitude
Rises 19:55:05 0° 256° (WSW) 2,718 6.8 -13.7°
Reaches altitude 10° 19:57:26 10° 264° (W) 1,814 5.9 -13.9°
Maximum altitude 20:01:15 37° 334° (NNW) 843 4.1 -14.4°
Drops below altitude 10° 20:05:01 10° 43° (NE) 1,790 5.2 -14.8°
Sets 20:07:19 0° 52° (NE) 2,676 6.0 -15.1°
